www.pogodaiklimat.ru

Погода и климат >> Архив погоды >> Россия >> Якутия >> Агаякан


ПОГОДА в Агаякане

  • Прогноз погоды в Агаякане
  • Монитор погоды в Агаякане

АРХИВ ПОГОДЫ в Агаякане

Время (UTC), дата Ветер
(напр.,м/с)
 
Видим.   Явления Облачность Т
(С)
Тd
(С)
f
(%)
Тe
(С)
Тes
(С)
Комфортность P
(гПа)
Po
(гПа)
Тmin
(С)
Tmax
(С)
R
(мм)
R24
(мм)
S
(см)
00 12.04 Ю 3 50 км ясно -15.0 -19.2 70 -22 -17 1011.9 913.8
03 12.04 СВ 2 50 км ясно -5.0 -16.2 41 -9 -1 1007.3 913.2
06 12.04 С 2 50 км 4/0
[Ci fib]
-2.5 -15.0 38 -6 -2 1005.4 912.3
09 12.04 С 1 50 км 10/0
[As trans Ci fib]
-2.5 -14.3 40 -4 -4 1005.5 912.4 +1.5
12 12.04 штиль 0 20 км 4/0
[Ci fib]
-11.7 -18.9 55 -12 -12 1009.8 912.2
15 12.04 Ю 2 20 км 6/0
[Ci fib]
-15.3 -15.9 95 -20 -20 1012.6 914.4
18 12.04 штиль 0 20 км 6/0
[Ci fib]
-16.7 -17.3 95 -17 -17 1013.1 914.4
21 12.04 штиль 0 50 км 10/0
[As trans Ci fib]
-16.0 -16.6 95 -16 -15 1013.3 914.8 -17.0 30
00 13.04 штиль 0 50 км 10/0
[As trans]
-8.5 -18.3 45 -9 -6 1010.4 914.8
03 13.04 СВ 1 50 км 10/0
[As trans]
-3.5 -12.9 48 -5 -1 1007.9 914.2
06 13.04 С 1 50 км 10/0
[Ac As]
-1.0 -11.6 44 -2 -1 1006.3 913.5
09 13.04 СЗ 2 50 км 10/0
[Ac As]
-2.0 -8.6 61 -5 -5 1006.9 913.8
12 13.04 Ю 1 50 км 8/0
[Ac As]
-4.5 -6.7 85 -7 -7 1009.8 915.6 -11.2
15 13.04 штиль 0 20 км 10/0
[Ac As]
-7.0 -8.7 88 -8 -8 1011.1 916.0
18 13.04 З 1 20 км 10/0
[Ac As]
-7.0 -7.5 96 -10 -10 1010.7 925.6
21 13.04 штиль 0 50 км 8/0
[Ac As]
-11.0 -11.6 95 -11 -11 1011.6 915.0 -11.2 30
00 14.04 СВ 2 50 км 8/0
[As trans Ci fib]
-4.0 -10.4 61 -8 -4 1007.9 914.1
03 14.04 С 2 50 км 4/0
[Ci fib]
-3.0 -10.5 56 -7 +1 1006.4 913.0
06 14.04 З 3 50 км 8/0
[As trans Ci fib]
+0.5 -12.4 37 -3 -1 1003.7 911.7
09 14.04 ЮЗ 2 50 км 10/0
[As trans]
-2.0 -13.4 41 -5 -5 1004.7 911.8 +0.5
12 14.04 ЮВ 1 20 км 10/0
[Ac As]
-4.0 -14.0 46 -6 -6 1006.7 913.0
15 14.04 штиль 0 20 км 10/0
[As trans]
-9.0 -14.5 64 -9 -9 1008.8 913.2
18 14.04 штиль 0 20 км 10/0
[Ac As]
-11.1 -13.0 86 -11 -11 1007.8 911.6
21 14.04 ЮВ 3 50 км 10/0
[Ac As]
-7.5 -11.9 71 -13 -13 1006.1 911.2 -11.5 29
00 15.04 СВ 1 50 км 10/0
[Ac As]
-5.5 -11.5 63 -8 -5 1004.8 910.8
03 15.04 ЮЗ 4 50 км 10/0
[Ac As]
-3.5 -14.2 43 -9 -7 1003.5 910.2
06 15.04 Ю 4 50 км 3/0
[As trans]
+3.0 -11.0 35 -1 +2 1001.0 910.1
09 15.04 Ю 4 50 км ясно -3.5 -15.5 39 -9 -9 1004.3 910.9 +3.0
12 15.04 ЮВ 2 20 км ясно -10.5 -16.8 60 -15 -15 1008.9 912.7
15 15.04 штиль 0 20 км ясно -17.0 -17.6 95 -17 -17 1012.1 913.4
18 15.04 ЮЗ 1 20 км 3/0
[As trans]
-20.5 -21.1 95 -24 -24 1014.7 914.4
21 15.04 ЮЗ 1 50 км 8/0
[As trans]
-17.0 -17.6 95 -20 -19 1014.1 915.2 -21.0 29
00 16.04 СВ 1 50 км 10/0
[As trans]
-11.0 -15.4 70 -13 -10 1012.5 915.8
03 16.04 С 2 50 км 8/0
[As trans]
-4.5 -13.4 50 -8 -4 1008.7 914.5
06 16.04 ЮВ 4 50 км 10/0
[As trans]
-1.5 -15.1 35 -6 -5 1006.9 913.9
09 16.04 Ю 2 50 км 8/0
[As trans]
-2.5 -13.6 42 -6 -5 1007.6 914.3 -1.0
12 16.04 З 1 20 км 10/0
[As trans]
-5.2 -15.2 45 -7 -7 1009.4 915.0
15 16.04 СВ 2 20 км 10/0
[As op]
-6.0 -13.3 56 -10 -10 1009.7 915.0
18 16.04 СВ 2 20 км 10/0
[As op]
-6.5 -13.1 59 -11 -11 1007.7 913.0
21 16.04 СВ 3 50 км 10/0
[As op]
-6.5 -12.5 62 -12 -12 1007.0 912.4 -6.8 29
00 17.04 СВ 4 50 км 10/0
[As op]
-5.0 -9.5 71 -11 -10 1006.1 912.1
03 17.04 В 3 50 км 10/0
[As op]
-1.0 -9.0 55 -5 -4 1003.4 910.9
06 17.04 СВ 3 50 км 10/0
[As op]
+0.5 -8.2 52 -3 -3 1001.3 909.5
09 17.04 ЮЗ 3 50 км 10/0
[As op]
+0.5 -7.7 54 -3 -3 1000.4 908.7 +1.0
12 17.04 В 1 20 км 10/0
[Ac As]
-0.7 -9.4 52 -2 -2 1002.1 909.9
15 17.04 В 3 20 км 10/0
[Ac As]
-2.0 -7.3 67 -7 -7 1002.3 909.7
18 17.04 ЮЗ 1 20 км 10/0
[Ac As]
-4.0 -7.3 78 -6 -6 1002.9 909.5
00 18.04 СВ 1 50 км 8/0
[Ac As]
-4.5 -7.5 80 -7 -4 1004.5 911.4
03 18.04 СВ 1 50 км 8/0
[Ac As]
-4.5 -7.5 80 -7 -2 1004.5 911.4
06 18.04 С 2 50 км 8/0
[As trans Ci fib]
-1.0 -13.4 38 -4 -1 1008.0 915.1
09 18.04 З 2 50 км 4/0
[Ci fib]
-2.5 -15.0 38 -6 -5 1012.5 918.7 0.0
12 18.04 СВ 1 20 км ясно -8.0 -18.1 44 -10 -10 1017.2 921.1
15 18.04 штиль 0 20 км 3/0
[As trans]
-14.5 -18.8 70 -15 -15 1021.6 922.8
18 18.04 ЮЗ 1 20 км 8/0
[As trans]
-13.0 -16.5 75 -15 -15 1022.2 923.9
21 18.04 ЮЗ 1 50 км 10/0
[As trans]
-14.0 -17.5 75 -16 -16 1022.9 924.2 -15.0 28

 

Местоположение метеостанции Агаякан (Якутия, Россия): широта 63.33 долгота 141.70 высота над уровнем моря 777 м.

В архиве по умолчанию представлена погода в Агаякане за последнюю неделю. Архивные данные за месяц целиком и за предыдущие месяцы, начиная с января 2011 года, Вы можете получить, выбрав интересующий диапазон дат из раскрывающегося списка и нажав кнопку "Ввод!".


*Определитесь, кто Вы:
робот инопланетянин человек

Внимание! Время в таблицах - всемирное. Для получения местного времени необходимо прибавить поправку, которая равна 10 ч.

Смотрите также архив погоды в соседних городах и на ближайших метеорологических станциях:

Погода в Оймяконе (Якутия, Россия) (71 км)
Погода в Юртах (Якутия, Россия) (80 км)
Погода в Восточной (Якутия, Россия) (106 км)
Погода в Усть-Нере (Якутия, Россия) (150 км)
Погода в Делянкире (Якутия, Россия) (201 км)
Погода в Теплом Ключе (Якутия, Россия) (254 км)
Погода в Уеге (Хабаровский край, Россия) (295 км)
Погода в Томпо (Якутия, Россия) (299 км)
Погода в Сусумане (Магаданская область, Россия) (328 км)
Погода в Колымской (Магаданская область, Россия) (344 км)

Пояснения к столбцам:

Ветер - указаны скорость ветра в м/с - средняя за 10 мин, порывы в срок и между сроками (в фигурных скобках) и направление, откуда дует ветер: С - северный, СВ - северо-восточный, В - восточный, ЮВ - юго-восточный, Ю - южный, ЮЗ - юго-западный, З - западный, СЗ - северо-западный.
Видимость - горизонтальная дальность видимости в метрах или километрах. При видимости от 1 до 10 км при отсутствии осадков обычно наблюдается дымка, при ухудшении видимости до 1 км и менее - туман. В сухую погоду видимость может ухудшаться дымом, пылью или мглою.
Явления - указаны атмосферные явления, наблюдавшиеся в срок или в последний час перед сроком; фигурными скобками обозначены явления, наблюдавшиеся между сроками (за 1-3 часа до срока); квадратными скобками обозначены град или гололедные отложения с указанием их диаметра в мм.
Облачность - указаны через наклонную черту общая и нижняя облачность в баллах и высота нижней границы облаков в метрах; квадратными скобками обозначены формы облаков: Ci - перистые, Cs - перисто-слоистые, Cc - перисто-кучевые, Ac - высококучевые, As - высокослоистые, Sc - слоисто-кучевые, Ns - слоисто-дождевые, Cu - кучевые, Cb - кучево-дождевые. Подробнее классификацию облаков см. в Атласе облаков (PDF).
T - Температура воздуха - температура, измеренная на высоте 2 м над землей.
Td - Температура точки росы - температура, при понижении до которой содержащийся в воздухе водяной пар достигнет насыщения.
f - Относительная влажность воздуха - влажноcть воздуха, измеренная на высоте 2 м над землей.
Te - Эффективная температура - температура, которую ощущает одетый по сезону человек в тени. Характеристика душности погоды. При расчете учитывается влияние влажности воздуха и скорости ветра на теплоощущения человека.
Tes - Эффективная температура на солнце - температура, которую ощущает человек, с поправкой на солнечный нагрев. Характеристика знойности погоды. Зависит от высоты солнца над горизонтом, облачности и скорости ветра. Ночью, в пасмурную погоду, а также при ветре 12 м/с и более поправка равна нулю.
P - Атмосферное давление - приведенное к уровню моря атмосферное давление.
Po - Атмосферное давление - измеренное на уровне метеостанции атмосферное давление.
Tmin - Минимальная температура - минимум температуры воздуха на высоте 2 м над землей.
Tmax - Максимальная температура - максимум температуры воздуха на высоте 2 м над землей.
R - Количество осадков - Количество выпавших осадков за период времени, мм. При наведении курсора мыши на число - период времени, за который выпало указанное количество осадков.
R24 - Количество осадков - Количество выпавших осадков за 24 часа, мм.
S - Снежный покров - Высота снежного покрова, см. При наведении курсора мыши на число - состояние снежного покрова и степень покрытия местности в баллах.